Time,TemperatureF,DewpointF,PressureIn,WindDirection,WindDirectionDegrees,WindSpeedMPH,WindSpeedGustMPH,Humidity,HourlyPrecipIn,Conditions,Clouds,dailyrainin,SoftwareType,DateUTC
2013-10-07 00:01:00,73.4,72.2,29.97,SE,144,0.0,0.0,96,0.00,,---,0.00,VWS V14.00,2013-10-07 04:01:00,
2013-10-07 00:06:00,73.6,72.4,29.97,SSE,158,3.0,5.0,96,0.00,,---,0.00,VWS V14.00,2013-10-07 04:06:00,
2013-10-07 00:11:00,73.7,72.5,29.97,South,174,5.0,6.0,96,0.00,,---,0.00,VWS V14.00,2013-10-07 04:11:00,
2013-10-07 00:16:00,73.7,72.5,29.97,SSE,166,5.0,6.0,96,0.00,,---,0.00,VWS V14.00,2013-10-07 04:16:00,
2013-10-07 00:21:00,73.8,72.6,29.97,South,170,2.0,6.0,96,0.00,,---,0.00,VWS V14.00,2013-10-07 04:21:00,
2013-10-07 00:26:00,73.9,72.7,29.96,SSE,158,4.0,7.0,96,0.00,,---,0.00,VWS V14.00,2013-10-07 04:26:00,
2013-10-07 00:31:00,74.0,72.5,29.96,SSE,156,3.0,6.0,95,0.00,,---,0.00,VWS V14.00,2013-10-07 04:31:00,
2013-10-07 00:36:00,74.2,72.7,29.96,SSE,165,5.0,7.0,95,0.00,,---,0.00,VWS V14.00,2013-10-07 04:36:00,
2013-10-07 00:41:00,74.3,72.8,29.96,South,170,7.0,8.0,95,0.00,,---,0.00,VWS V14.00,2013-10-07 04:41:00,
2013-10-07 00:46:00,74.4,72.9,29.95,SSE,160,5.0,9.0,95,0.00,,---,0.00,VWS V14.00,2013-10-07 04:46:00,
2013-10-07 00:51:00,74.4,72.9,29.96,SSE,158,4.0,9.0,95,0.00,,---,0.00,VWS V14.00,2013-10-07 04:51:00,
2013-10-07 00:56:00,74.5,73.0,29.95,South,175,4.0,9.0,95,0.00,,---,0.00,VWS V14.00,2013-10-07 04:56:00,
2013-10-07 01:01:00,74.5,73.0,29.95,SSE,160,4.0,7.0,95,0.00,,---,0.00,VWS V14.00,2013-10-07 05:01:00,
2013-10-07 01:06:00,74.5,73.0,29.96,SSE,166,4.0,7.0,95,0.00,,---,0.00,VWS V14.00,2013-10-07 05:06:00,
2013-10-07 01:11:00,74.4,72.6,29.95,SSE,158,3.0,7.0,94,0.00,,---,0.00,VWS V14.00,2013-10-07 05:11:00,
2013-10-07 01:16:00,74.4,72.6,29.95,SSE,156,5.0,7.0,94,0.00,,---,0.00,VWS V14.00,2013-10-07 05:16:00,
2013-10-07 01:21:00,74.4,72.6,29.95,SSE,161,6.0,7.0,94,0.00,,---,0.00,VWS V14.00,2013-10-07 05:21:00,
2013-10-07 01:26:00,74.4,72.6,29.95,SSE,148,3.0,7.0,94,0.00,,---,0.00,VWS V14.00,2013-10-07 05:26:00,
2013-10-07 01:31:00,74.4,72.6,29.95,South,169,5.0,6.0,94,0.00,,---,0.00,VWS V14.00,2013-10-07 05:31:00,
2013-10-07 01:36:00,74.3,72.5,29.95,SSE,157,2.0,6.0,94,0.00,,---,0.00,VWS V14.00,2013-10-07 05:36:00,
2013-10-07 01:41:00,74.3,72.5,29.95,SSE,148,4.0,6.0,94,0.00,,---,0.00,VWS V14.00,2013-10-07 05:41:00,
2013-10-07 01:46:00,74.3,72.8,29.95,SSE,158,4.0,6.0,95,0.00,,---,0.00,VWS V14.00,2013-10-07 05:46:00,
2013-10-07 01:51:00,74.4,72.9,29.95,SSE,151,6.0,6.0,95,0.00,,---,0.00,VWS V14.00,2013-10-07 05:51:00,
2013-10-07 01:56:00,74.6,73.1,29.95,SSE,155,5.0,7.0,95,0.00,,---,0.00,VWS V14.00,2013-10-07 05:56:00,
2013-10-07 02:01:00,74.7,72.9,29.95,SSE,161,2.0,8.0,94,0.00,,---,0.00,VWS V14.00,2013-10-07 06:01:00,
2013-10-07 02:06:00,74.8,73.0,29.95,South,182,6.0,8.0,94,0.00,,---,0.00,VWS V14.00,2013-10-07 06:06:00,
2013-10-07 02:11:00,74.8,73.0,29.95,SSE,157,6.0,8.0,94,0.00,,---,0.00,VWS V14.00,2013-10-07 06:11:00,
2013-10-07 02:16:00,74.8,73.0,29.95,South,172,4.0,9.0,94,0.00,,---,0.00,VWS V14.00,2013-10-07 06:16:00,
2013-10-07 02:21:00,74.8,73.0,29.94,SE,145,5.0,9.0,94,0.00,,---,0.00,VWS V14.00,2013-10-07 06:21:00,
2013-10-07 02:26:00,74.9,72.7,29.94,SSE,152,4.0,9.0,93,0.00,,---,0.00,VWS V14.00,2013-10-07 06:26:00,
2013-10-07 02:31:00,74.8,72.6,29.94,SSE,156,4.0,6.0,93,0.00,,---,0.00,VWS V14.00,2013-10-07 06:31:00,
2013-10-07 02:36:00,74.9,72.7,29.94,SSE,162,6.0,10.0,93,0.00,,---,0.00,VWS V14.00,2013-10-07 06:36:00,
2013-10-07 02:41:00,74.9,72.7,29.93,SSE,165,5.0,10.0,93,0.00,,---,0.00,VWS V14.00,2013-10-07 06:41:00,
2013-10-07 02:46:00,75.0,72.8,29.93,SSE,162,7.0,12.0,93,0.00,,---,0.00,VWS V14.00,2013-10-07 06:46:00,
2013-10-07 02:51:00,75.0,72.8,29.93,SE,146,9.0,12.0,93,0.00,,---,0.00,VWS V14.00,2013-10-07 06:51:00,
2013-10-07 02:56:00,75.0,72.8,29.93,SSE,153,5.0,12.0,93,0.00,,---,0.00,VWS V14.00,2013-10-07 06:56:00,
2013-10-07 03:01:00,75.1,72.6,29.93,South,178,6.0,11.0,92,0.00,,---,0.00,VWS V14.00,2013-10-07 07:01:00,
2013-10-07 03:06:00,75.3,72.8,29.93,SSE,154,11.0,13.0,92,0.00,,---,0.00,VWS V14.00,2013-10-07 07:06:00,
2013-10-07 03:11:00,75.3,72.8,29.93,SSE,159,7.0,13.0,92,0.00,,---,0.00,VWS V14.00,2013-10-07 07:11:00,
2013-10-07 03:16:00,75.2,72.7,29.93,SSE,153,9.0,13.0,92,0.00,,---,0.00,VWS V14.00,2013-10-07 07:16:00,
2013-10-07 03:21:00,75.1,72.3,29.92,SSE,166,7.0,13.0,91,0.00,,---,0.00,VWS V14.00,2013-10-07 07:21:00,
2013-10-07 03:26:00,75.1,72.3,29.92,SSE,160,6.0,13.0,91,0.00,,---,0.00,VWS V14.00,2013-10-07 07:26:00,
2013-10-07 03:31:00,75.0,72.2,29.92,SSE,154,5.0,10.0,91,0.00,,---,0.00,VWS V14.00,2013-10-07 07:31:00,
2013-10-07 03:36:00,74.9,72.1,29.92,SE,144,5.0,10.0,91,0.00,,---,0.00,VWS V14.00,2013-10-07 07:36:00,
2013-10-07 03:41:00,74.8,72.0,29.92,South,175,6.0,10.0,91,0.00,,---,0.00,VWS V14.00,2013-10-07 07:41:00,
2013-10-07 03:46:00,74.9,72.1,29.92,South,176,5.0,11.0,91,0.00,,---,0.00,VWS V14.00,2013-10-07 07:46:00,
2013-10-07 03:51:00,74.9,72.1,29.92,South,172,6.0,11.0,91,0.00,,---,0.00,VWS V14.00,2013-10-07 07:51:00,
2013-10-07 03:56:00,74.8,72.0,29.92,SSE,161,8.0,11.0,91,0.00,,---,0.00,VWS V14.00,2013-10-07 07:56:00,
2013-10-07 04:01:00,74.8,72.0,29.92,SSE,162,6.0,9.0,91,0.00,,---,0.00,VWS V14.00,2013-10-07 08:01:00,
2013-10-07 04:06:00,74.8,72.0,29.92,SE,141,8.0,9.0,91,0.00,,---,0.00,VWS V14.00,2013-10-07 08:06:00,
2013-10-07 04:11:00,74.7,71.9,29.92,SSE,156,4.0,9.0,91,0.00,,---,0.00,VWS V14.00,2013-10-07 08:11:00,
2013-10-07 04:16:00,74.7,71.9,29.92,SE,145,5.0,10.0,91,0.00,,---,0.00,VWS V14.00,2013-10-07 08:16:00,
2013-10-07 04:21:00,74.7,71.9,29.92,South,174,8.0,10.0,91,0.00,,---,0.00,VWS V14.00,2013-10-07 08:21:00,
2013-10-07 04:26:00,74.8,72.0,29.92,SSE,161,5.0,10.0,91,0.00,,---,0.00,VWS V14.00,2013-10-07 08:26:00,
2013-10-07 04:31:00,74.8,72.0,29.92,SSE,163,3.0,9.0,91,0.00,,---,0.00,VWS V14.00,2013-10-07 08:31:00,
2013-10-07 04:36:00,74.7,71.9,29.92,SSE,162,7.0,9.0,91,0.00,,---,0.00,VWS V14.00,2013-10-07 08:36:00,
2013-10-07 04:41:00,74.8,72.0,29.92,SSE,149,9.0,11.0,91,0.00,,---,0.00,VWS V14.00,2013-10-07 08:41:00,
2013-10-07 04:46:00,74.8,72.0,29.92,SSE,166,7.0,11.0,91,0.00,,---,0.00,VWS V14.00,2013-10-07 08:46:00,
2013-10-07 04:51:00,74.8,72.0,29.92,SSE,157,7.0,11.0,91,0.00,,---,0.00,VWS V14.00,2013-10-07 08:51:00,
2013-10-07 04:56:00,74.8,72.0,29.92,SSE,162,5.0,11.0,91,0.00,,---,0.00,VWS V14.00,2013-10-07 08:56:00,
2013-10-07 05:01:00,74.9,72.1,29.93,SSE,158,5.0,10.0,91,0.00,,---,0.00,VWS V14.00,2013-10-07 09:01:00,
2013-10-07 05:06:00,74.9,72.1,29.93,SSE,160,5.0,10.0,91,0.00,,---,0.00,VWS V14.00,2013-10-07 09:06:00,
2013-10-07 05:11:00,74.8,72.0,29.93,SSE,156,5.0,10.0,91,0.00,,---,0.00,VWS V14.00,2013-10-07 09:11:00,
2013-10-07 05:16:00,74.8,72.0,29.93,South,170,4.0,10.0,91,0.00,,---,0.00,VWS V14.00,2013-10-07 09:16:00,
2013-10-07 05:21:00,74.6,71.8,29.93,SSE,156,4.0,10.0,91,0.00,,---,0.00,VWS V14.00,2013-10-07 09:21:00,
2013-10-07 05:26:00,74.6,71.8,29.93,SSE,160,7.0,10.0,91,0.00,,---,0.00,VWS V14.00,2013-10-07 09:26:00,
2013-10-07 05:31:00,74.6,71.8,29.93,South,169,5.0,7.0,91,0.00,,---,0.00,VWS V14.00,2013-10-07 09:31:00,
2013-10-07 05:36:00,74.6,71.8,29.92,South,180,8.0,10.0,91,0.00,,---,0.00,VWS V14.00,2013-10-07 09:36:00,
2013-10-07 05:41:00,74.6,71.8,29.92,SSE,168,5.0,10.0,91,0.00,,---,0.00,VWS V14.00,2013-10-07 09:41:00,
2013-10-07 05:46:00,74.6,71.8,29.92,SSE,160,6.0,11.0,91,0.00,,---,0.00,VWS V14.00,2013-10-07 09:46:00,
2013-10-07 05:51:00,74.7,71.6,29.92,SSE,157,9.0,14.0,90,0.00,,---,0.00,VWS V14.00,2013-10-07 09:51:00,
2013-10-07 05:56:00,74.8,71.7,29.92,SSE,150,5.0,14.0,90,0.00,,---,0.00,VWS V14.00,2013-10-07 09:56:00,
2013-10-07 06:01:00,74.8,71.7,29.93,SE,135,9.0,11.0,90,0.00,,---,0.00,VWS V14.00,2013-10-07 10:01:00,
2013-10-07 06:06:00,74.8,71.7,29.92,South,183,7.0,11.0,90,0.00,,---,0.00,VWS V14.00,2013-10-07 10:06:00,
2013-10-07 06:11:00,74.9,71.4,29.92,South,177,7.0,11.0,89,0.00,,---,0.00,VWS V14.00,2013-10-07 10:11:00,
2013-10-07 06:16:00,74.9,71.4,29.92,South,170,5.0,11.0,89,0.00,,---,0.00,VWS V14.00,2013-10-07 10:16:00,
2013-10-07 06:21:00,74.9,71.4,29.92,SSE,158,6.0,12.0,89,0.00,,---,0.00,VWS V14.00,2013-10-07 10:21:00,
2013-10-07 06:26:00,74.8,71.7,29.92,South,185,9.0,12.0,90,0.00,,---,0.00,VWS V14.00,2013-10-07 10:26:00,
2013-10-07 06:31:00,74.9,71.8,29.92,SSE,154,4.0,11.0,90,0.00,,---,0.00,VWS V14.00,2013-10-07 10:31:00,
2013-10-07 06:36:00,74.9,71.8,29.92,SSE,156,9.0,11.0,90,0.00,,---,0.00,VWS V14.00,2013-10-07 10:36:00,
2013-10-07 06:41:00,75.0,71.9,29.91,SSE,158,4.0,12.0,90,0.00,,---,0.00,VWS V14.00,2013-10-07 10:41:00,
2013-10-07 06:46:00,74.9,71.8,29.92,SSE,164,4.0,12.0,90,0.00,,---,0.00,VWS V14.00,2013-10-07 10:46:00,
2013-10-07 06:51:00,74.9,71.8,29.91,SSE,164,6.0,12.0,90,0.00,,---,0.00,VWS V14.00,2013-10-07 10:51:00,
2013-10-07 06:56:00,74.8,72.0,29.91,SSE,147,6.0,12.0,91,0.00,,---,0.00,VWS V14.00,2013-10-07 10:56:00,
2013-10-07 07:01:00,74.8,72.0,29.91,SSE,156,4.0,9.0,91,0.00,,---,0.00,VWS V14.00,2013-10-07 11:01:00,
2013-10-07 07:06:00,74.7,71.9,29.91,SSE,159,4.0,9.0,91,0.00,,---,0.00,VWS V14.00,2013-10-07 11:06:00,
2013-10-07 07:11:00,74.8,72.0,29.92,SSE,168,7.0,9.0,91,0.00,,---,0.00,VWS V14.00,2013-10-07 11:11:00,
2013-10-07 07:16:00,74.8,72.0,29.91,South,170,6.0,9.0,91,0.00,,---,0.00,VWS V14.00,2013-10-07 11:16:00,
2013-10-07 07:21:00,74.9,72.1,29.92,SSE,160,6.0,9.0,91,0.00,,---,0.00,VWS V14.00,2013-10-07 11:21:00,
2013-10-07 07:26:00,74.9,72.1,29.92,SSE,164,7.0,9.0,91,0.00,,---,0.00,VWS V14.00,2013-10-07 11:26:00,
2013-10-07 07:31:00,75.0,72.2,29.92,SE,145,5.0,9.0,91,0.00,,---,0.00,VWS V14.00,2013-10-07 11:31:00,
2013-10-07 07:36:00,75.1,72.3,29.92,SSE,160,5.0,9.0,91,0.00,,---,0.00,VWS V14.00,2013-10-07 11:36:00,
2013-10-07 07:41:00,75.2,72.4,29.92,South,169,5.0,9.0,91,0.00,,---,0.00,VWS V14.00,2013-10-07 11:41:00,
2013-10-07 07:46:00,75.5,72.4,29.92,SSE,166,5.0,10.0,90,0.00,,---,0.00,VWS V14.00,2013-10-07 11:46:00,
2013-10-07 07:51:00,75.8,72.7,29.92,SSE,160,6.0,10.0,90,0.00,,---,0.00,VWS V14.00,2013-10-07 11:51:00,
2013-10-07 07:56:00,76.1,73.0,29.92,SSE,162,9.0,11.0,90,0.00,,---,0.00,VWS V14.00,2013-10-07 11:56:00,
2013-10-07 08:01:00,76.5,73.0,29.92,South,173,6.0,16.0,89,0.00,,---,0.00,VWS V14.00,2013-10-07 12:01:00,
2013-10-07 08:06:00,76.7,72.9,29.92,SSE,156,10.0,16.0,88,0.00,,---,0.00,VWS V14.00,2013-10-07 12:06:00,
2013-10-07 08:11:00,77.0,72.8,29.92,SSE,168,10.0,16.0,87,0.00,,---,0.00,VWS V14.00,2013-10-07 12:11:00,
2013-10-07 08:16:00,77.1,72.9,29.92,SSE,158,6.0,16.0,87,0.00,,---,0.00,VWS V14.00,2013-10-07 12:16:00,
2013-10-07 08:21:00,76.9,72.7,29.92,South,185,9.0,17.0,87,0.00,,---,0.00,VWS V14.00,2013-10-07 12:21:00,
2013-10-07 08:26:00,76.7,72.5,29.92,SSE,158,10.0,17.0,87,0.00,,---,0.00,VWS V14.00,2013-10-07 12:26:00,
2013-10-07 08:31:00,76.9,73.1,29.92,SSE,156,7.0,12.0,88,0.00,,---,0.00,VWS V14.00,2013-10-07 12:31:00,
2013-10-07 08:36:00,77.4,73.6,29.92,SSW,200,9.0,13.0,88,0.00,,---,0.00,VWS V14.00,2013-10-07 12:36:00,
2013-10-07 08:41:00,77.8,73.6,29.92,SSE,164,7.0,14.0,87,0.00,,---,0.00,VWS V14.00,2013-10-07 12:41:00,
2013-10-07 08:46:00,77.8,73.3,29.92,South,177,10.0,16.0,86,0.00,,---,0.00,VWS V14.00,2013-10-07 12:46:00,
2013-10-07 08:51:00,77.7,73.5,29.92,SSE,160,9.0,16.0,87,0.00,,---,0.00,VWS V14.00,2013-10-07 12:51:00,
2013-10-07 08:56:00,77.8,73.6,29.92,SSE,156,11.0,16.0,87,0.00,,---,0.00,VWS V14.00,2013-10-07 12:56:00,
2013-10-07 09:01:00,78.3,73.8,29.92,SE,145,8.0,15.0,86,0.00,,---,0.00,VWS V14.00,2013-10-07 13:01:00,
2013-10-07 09:06:00,78.2,73.7,29.92,SSE,152,7.0,15.0,86,0.00,,---,0.00,VWS V14.00,2013-10-07 13:06:00,
2013-10-07 09:11:00,78.3,73.4,29.92,SSE,151,12.0,15.0,85,0.00,,---,0.00,VWS V14.00,2013-10-07 13:11:00,
2013-10-07 09:16:00,78.3,73.4,29.92,SE,125,16.0,16.0,85,0.00,,---,0.00,VWS V14.00,2013-10-07 13:16:00,
2013-10-07 09:21:00,78.7,73.8,29.92,SSE,148,13.0,16.0,85,0.00,,---,0.00,VWS V14.00,2013-10-07 13:21:00,
2013-10-07 09:26:00,79.1,73.8,29.92,SSE,156,13.0,16.0,84,0.00,,---,0.00,VWS V14.00,2013-10-07 13:26:00,
2013-10-07 09:31:00,79.3,74.1,29.92,SSE,156,9.0,14.0,84,0.00,,---,0.00,VWS V14.00,2013-10-07 13:31:00,
2013-10-07 09:36:00,79.6,74.3,29.92,South,190,10.0,15.0,84,0.00,,---,0.00,VWS V14.00,2013-10-07 13:36:00,
2013-10-07 09:41:00,79.8,73.8,29.93,SSE,161,11.0,17.0,82,0.00,,---,0.00,VWS V14.00,2013-10-07 13:41:00,
2013-10-07 09:46:00,79.8,73.4,29.93,South,170,8.0,21.0,81,0.00,,---,0.00,VWS V14.00,2013-10-07 13:46:00,
2013-10-07 09:51:00,79.9,73.9,29.93,South,186,9.0,21.0,82,0.00,,---,0.00,VWS V14.00,2013-10-07 13:51:00,
2013-10-07 09:56:00,80.1,73.8,29.93,South,179,8.0,21.0,81,0.00,,---,0.00,VWS V14.00,2013-10-07 13:56:00,
2013-10-07 10:01:00,80.2,73.5,29.93,South,189,15.0,18.0,80,0.00,,---,0.00,VWS V14.00,2013-10-07 14:01:00,
2013-10-07 10:06:00,79.6,73.3,29.93,South,183,7.0,18.0,81,0.00,,---,0.00,VWS V14.00,2013-10-07 14:06:00,
2013-10-07 10:11:00,79.4,73.4,29.93,SSE,159,9.0,18.0,82,0.00,,---,0.00,VWS V14.00,2013-10-07 14:11:00,
2013-10-07 10:16:00,79.3,73.0,29.93,SSE,156,14.0,18.0,81,0.00,,---,0.00,VWS V14.00,2013-10-07 14:16:00,
2013-10-07 10:21:00,79.5,73.2,29.93,SSE,158,14.0,19.0,81,0.00,,---,0.00,VWS V14.00,2013-10-07 14:21:00,
2013-10-07 10:26:00,79.7,73.0,29.93,SSE,160,13.0,20.0,80,0.00,,---,0.00,VWS V14.00,2013-10-07 14:26:00,
2013-10-07 10:31:00,79.9,73.2,29.93,South,175,7.0,18.0,80,0.00,,---,0.00,VWS V14.00,2013-10-07 14:31:00,
2013-10-07 10:36:00,80.1,73.0,29.93,South,171,19.0,21.0,79,0.00,,---,0.00,VWS V14.00,2013-10-07 14:36:00,
2013-10-07 10:41:00,80.3,73.2,29.93,SSE,159,17.0,21.0,79,0.00,,---,0.00,VWS V14.00,2013-10-07 14:41:00,
2013-10-07 10:46:00,80.6,73.5,29.93,South,184,10.0,21.0,79,0.00,,---,0.00,VWS V14.00,2013-10-07 14:46:00,
2013-10-07 10:51:00,81.2,74.4,29.93,South,186,18.0,21.0,80,0.00,,---,0.00,VWS V14.00,2013-10-07 14:51:00,
2013-10-07 10:56:00,80.9,73.4,29.93,South,189,14.0,21.0,78,0.00,,---,0.00,VWS V14.00,2013-10-07 14:56:00,
2013-10-07 11:01:00,80.5,73.8,29.93,SE,145,9.0,13.0,80,0.00,,---,0.00,VWS V14.00,2013-10-07 15:01:00,
2013-10-07 11:06:00,79.8,73.4,29.92,South,182,10.0,20.0,81,0.00,,---,0.00,VWS V14.00,2013-10-07 15:06:00,
2013-10-07 11:11:00,80.5,74.1,29.92,South,181,11.0,20.0,81,0.00,,---,0.00,VWS V14.00,2013-10-07 15:11:00,
2013-10-07 11:16:00,80.7,74.3,29.92,SSE,164,9.0,20.0,81,0.00,,---,0.00,VWS V14.00,2013-10-07 15:16:00,
2013-10-07 11:21:00,79.9,73.9,29.92,SSE,168,12.0,20.0,82,0.00,,---,0.00,VWS V14.00,2013-10-07 15:21:00,
2013-10-07 11:26:00,79.7,73.7,29.92,SSE,162,12.0,20.0,82,0.00,,---,0.00,VWS V14.00,2013-10-07 15:26:00,
2013-10-07 11:31:00,79.8,73.8,29.92,South,172,7.0,16.0,82,0.00,,---,0.00,VWS V14.00,2013-10-07 15:31:00,
2013-10-07 11:36:00,80.1,73.8,29.92,South,170,16.0,17.0,81,0.00,,---,0.00,VWS V14.00,2013-10-07 15:36:00,
2013-10-07 11:41:00,80.2,74.2,29.92,SSE,164,9.0,18.0,82,0.00,,---,0.00,VWS V14.00,2013-10-07 15:41:00,
2013-10-07 11:46:00,80.3,72.8,29.92,South,186,9.0,20.0,78,0.00,,---,0.00,VWS V14.00,2013-10-07 15:46:00,
2013-10-07 11:51:00,80.1,72.6,29.92,South,172,9.0,21.0,78,0.00,,---,0.00,VWS V14.00,2013-10-07 15:51:00,
2013-10-07 11:56:00,80.1,73.0,29.92,SSE,153,8.0,21.0,79,0.00,,---,0.00,VWS V14.00,2013-10-07 15:56:00,
2013-10-07 12:01:00,79.9,72.8,29.92,SSE,162,9.0,19.0,79,0.00,,---,0.00,VWS V14.00,2013-10-07 16:01:00,
2013-10-07 12:06:00,79.8,73.1,29.92,SSE,154,9.0,19.0,80,0.00,,---,0.00,VWS V14.00,2013-10-07 16:06:00,
2013-10-07 12:11:00,79.5,72.8,29.92,SSE,163,10.0,19.0,80,0.00,,---,0.00,VWS V14.00,2013-10-07 16:11:00,
2013-10-07 12:16:00,79.3,73.0,29.92,South,175,8.0,19.0,81,0.00,,---,0.00,VWS V14.00,2013-10-07 16:16:00,
2013-10-07 12:21:00,79.3,73.0,29.92,SE,142,7.0,19.0,81,0.00,,---,0.00,VWS V14.00,2013-10-07 16:21:00,
2013-10-07 12:26:00,79.3,73.0,29.92,SE,137,5.0,19.0,81,0.00,,---,0.00,VWS V14.00,2013-10-07 16:26:00,
2013-10-07 12:31:00,79.2,72.9,29.92,SSE,155,7.0,17.0,81,0.00,,---,0.00,VWS V14.00,2013-10-07 16:31:00,
2013-10-07 12:36:00,79.3,73.3,29.91,South,174,13.0,17.0,82,0.00,,---,0.00,VWS V14.00,2013-10-07 16:36:00,
2013-10-07 12:41:00,79.3,73.3,29.91,South,186,13.0,17.0,82,0.00,,---,0.00,VWS V14.00,2013-10-07 16:41:00,
2013-10-07 12:46:00,79.5,73.2,29.91,SSE,150,15.0,18.0,81,0.00,,---,0.00,VWS V14.00,2013-10-07 16:46:00,
2013-10-07 12:50:00,79.5,73.2,29.91,South,181,8.0,18.0,81,0.00,,---,0.00,VWS V14.00,2013-10-07 16:50:00,
2013-10-07 12:56:00,79.7,73.7,29.90,South,185,11.0,19.0,82,0.00,,---,0.00,VWS V14.00,2013-10-07 16:56:00,
2013-10-07 13:00:00,79.9,73.6,29.90,South,178,10.0,17.0,81,0.00,,---,0.00,VWS V14.00,2013-10-07 17:00:00,
2013-10-07 13:05:00,79.8,73.1,29.90,SSE,165,7.0,19.0,80,0.00,,---,0.00,VWS V14.00,2013-10-07 17:05:00,
2013-10-07 13:06:00,79.8,73.4,29.90,SSW,197,11.0,19.0,81,0.00,,---,0.00,VWS V14.00,2013-10-07 17:06:00,
2013-10-07 13:11:00,79.7,73.7,29.90,SSE,165,8.0,19.0,82,0.00,,---,0.00,VWS V14.00,2013-10-07 17:11:00,
2013-10-07 13:16:00,79.7,73.4,29.90,SSE,149,12.0,19.0,81,0.00,,---,0.00,VWS V14.00,2013-10-07 17:16:00,
2013-10-07 13:21:00,79.6,73.6,29.89,SSW,192,17.0,19.0,82,0.00,,---,0.00,VWS V14.00,2013-10-07 17:21:00,
2013-10-07 13:26:00,79.6,73.3,29.90,South,175,13.0,19.0,81,0.00,,---,0.00,VWS V14.00,2013-10-07 17:26:00,
2013-10-07 13:31:00,79.5,73.2,29.89,South,172,10.0,18.0,81,0.00,,---,0.00,VWS V14.00,2013-10-07 17:31:00,
2013-10-07 13:36:00,79.5,73.2,29.89,South,169,7.0,18.0,81,0.00,,---,0.00,VWS V14.00,2013-10-07 17:36:00,
2013-10-07 13:41:00,79.6,73.3,29.89,SSW,197,12.0,18.0,81,0.00,,---,0.00,VWS V14.00,2013-10-07 17:41:00,
2013-10-07 13:46:00,79.5,73.2,29.88,SSE,161,8.0,18.0,81,0.00,,---,0.00,VWS V14.00,2013-10-07 17:46:00,
2013-10-07 13:51:00,79.4,72.7,29.88,SSE,152,11.0,18.0,80,0.00,,---,0.00,VWS V14.00,2013-10-07 17:51:00,
2013-10-07 13:56:00,79.2,72.9,29.88,SSE,166,7.0,18.0,81,0.00,,---,0.00,VWS V14.00,2013-10-07 17:56:00,
2013-10-07 14:01:00,79.2,72.9,29.88,SSE,160,10.0,19.0,81,0.00,,---,0.00,VWS V14.00,2013-10-07 18:01:00,
2013-10-07 14:06:00,79.1,72.8,29.87,SE,139,11.0,19.0,81,0.00,,---,0.00,VWS V14.00,2013-10-07 18:06:00,
2013-10-07 14:11:00,79.0,73.0,29.87,SSE,150,9.0,19.0,82,0.00,,---,0.00,VWS V14.00,2013-10-07 18:11:00,
2013-10-07 14:16:00,78.7,72.8,29.87,SSE,158,6.0,19.0,82,0.00,,---,0.00,VWS V14.00,2013-10-07 18:16:00,
2013-10-07 14:21:00,78.6,73.0,29.87,SSE,160,10.0,19.0,83,0.00,,---,0.00,VWS V14.00,2013-10-07 18:21:00,
2013-10-07 14:26:00,78.5,72.9,29.87,SSE,168,7.0,19.0,83,0.00,,---,0.00,VWS V14.00,2013-10-07 18:26:00,
2013-10-07 14:31:00,78.4,72.8,29.87,SSE,154,7.0,13.0,83,0.00,,---,0.00,VWS V14.00,2013-10-07 18:31:00,
2013-10-07 14:36:00,78.4,72.8,29.87,SSE,165,7.0,13.0,83,0.00,,---,0.00,VWS V14.00,2013-10-07 18:36:00,
2013-10-07 14:41:00,78.4,72.8,29.87,South,177,5.0,13.0,83,0.00,,---,0.00,VWS V14.00,2013-10-07 18:41:00,
2013-10-07 14:46:00,78.3,72.7,29.87,SSE,158,9.0,13.0,83,0.00,,---,0.00,VWS V14.00,2013-10-07 18:46:00,
2013-10-07 14:51:00,78.3,73.1,29.87,South,170,8.0,13.0,84,0.00,,---,0.00,VWS V14.00,2013-10-07 18:51:00,
2013-10-07 14:56:00,78.2,73.0,29.87,South,185,9.0,13.0,84,0.00,,---,0.00,VWS V14.00,2013-10-07 18:56:00,
2013-10-07 15:01:00,78.0,73.1,29.87,South,181,8.0,10.0,85,0.00,,---,0.00,VWS V14.00,2013-10-07 19:01:00,
2013-10-07 15:06:00,77.7,73.2,29.87,South,172,7.0,10.0,86,0.00,,---,0.00,VWS V14.00,2013-10-07 19:06:00,
2013-10-07 15:11:00,77.5,73.3,29.87,South,170,7.0,10.0,87,0.00,,---,0.00,VWS V14.00,2013-10-07 19:11:00,
2013-10-07 15:16:00,77.3,73.1,29.87,South,170,7.0,10.0,87,0.00,,---,0.00,VWS V14.00,2013-10-07 19:16:00,
2013-10-07 15:21:00,77.3,73.1,29.87,SE,138,6.0,10.0,87,0.00,,---,0.00,VWS V14.00,2013-10-07 19:21:00,
2013-10-07 15:26:00,77.5,73.3,29.87,SSE,167,6.0,10.0,87,0.00,,---,0.00,VWS V14.00,2013-10-07 19:26:00,
2013-10-07 15:31:00,77.6,73.4,29.87,SSE,152,5.0,8.0,87,0.00,,---,0.00,VWS V14.00,2013-10-07 19:31:00,
2013-10-07 15:36:00,77.8,73.3,29.87,SSE,154,6.0,9.0,86,0.00,,---,0.00,VWS V14.00,2013-10-07 19:36:00,
2013-10-07 15:41:00,77.9,73.7,29.87,South,169,8.0,10.0,87,0.00,,---,0.00,VWS V14.00,2013-10-07 19:41:00,
2013-10-07 15:46:00,77.9,73.4,29.87,SE,144,7.0,12.0,86,0.00,,---,0.00,VWS V14.00,2013-10-07 19:46:00,
2013-10-07 15:51:00,77.9,73.4,29.88,South,178,6.0,12.0,86,0.00,,---,0.00,VWS V14.00,2013-10-07 19:51:00,
2013-10-07 15:56:00,77.7,73.2,29.88,South,181,7.0,12.0,86,0.00,,---,0.00,VWS V14.00,2013-10-07 19:56:00,
2013-10-07 16:01:00,77.6,73.1,29.88,SSE,167,5.0,10.0,86,0.00,,---,0.00,VWS V14.00,2013-10-07 20:01:00,
2013-10-07 16:06:00,77.5,73.0,29.88,South,175,5.0,10.0,86,0.00,,---,0.00,VWS V14.00,2013-10-07 20:06:00,
2013-10-07 16:11:00,77.5,73.3,29.88,South,172,4.0,10.0,87,0.00,,---,0.00,VWS V14.00,2013-10-07 20:11:00,
2013-10-07 16:16:00,77.5,73.3,29.88,South,170,5.0,10.0,87,0.00,,---,0.00,VWS V14.00,2013-10-07 20:16:00,
2013-10-07 16:21:00,77.4,73.2,29.88,SSE,168,3.0,10.0,87,0.00,,---,0.00,VWS V14.00,2013-10-07 20:21:00,
2013-10-07 16:26:00,77.4,73.2,29.88,SSE,152,4.0,10.0,87,0.00,,---,0.00,VWS V14.00,2013-10-07 20:26:00,
2013-10-07 16:31:00,77.3,73.1,29.88,SSE,155,3.0,6.0,87,0.00,,---,0.00,VWS V14.00,2013-10-07 20:31:00,
2013-10-07 16:36:00,77.2,73.0,29.88,SSE,163,5.0,6.0,87,0.00,,---,0.00,VWS V14.00,2013-10-07 20:36:00,
2013-10-07 16:41:00,76.9,72.4,29.88,SSE,164,13.0,15.0,86,0.00,,---,0.00,VWS V14.00,2013-10-07 20:41:00,
2013-10-07 16:46:00,76.5,71.7,29.88,South,180,9.0,17.0,85,0.00,,---,0.00,VWS V14.00,2013-10-07 20:46:00,
2013-10-07 16:51:00,75.9,71.4,29.88,South,177,7.0,17.0,86,0.00,,---,0.00,VWS V14.00,2013-10-07 20:51:00,
2013-10-07 16:56:00,75.2,71.4,29.87,South,181,7.0,17.0,88,0.00,,---,0.00,VWS V14.00,2013-10-07 20:56:00,
2013-10-07 17:01:00,74.8,71.3,29.88,South,176,2.0,7.0,89,0.00,,---,0.00,VWS V14.00,2013-10-07 21:01:00,
2013-10-07 17:06:00,74.5,71.4,29.88,South,185,3.0,7.0,90,0.00,,---,0.00,VWS V14.00,2013-10-07 21:06:00,
2013-10-07 17:11:00,74.2,71.4,29.88,South,179,4.0,7.0,91,0.00,,---,0.00,VWS V14.00,2013-10-07 21:11:00,
2013-10-07 17:16:00,74.0,71.2,29.88,SSW,193,4.0,7.0,91,0.00,,---,0.00,VWS V14.00,2013-10-07 21:16:00,
2013-10-07 17:21:00,73.9,71.4,29.88,SSW,196,0.0,7.0,92,0.00,,---,0.01,VWS V14.00,2013-10-07 21:21:00,
2013-10-07 17:26:00,73.9,71.8,29.88,South,191,2.0,7.0,93,0.00,,---,0.01,VWS V14.00,2013-10-07 21:26:00,
2013-10-07 17:31:00,73.9,71.8,29.88,SSW,198,0.0,4.0,93,0.00,,---,0.01,VWS V14.00,2013-10-07 21:31:00,
2013-10-07 17:36:00,73.9,71.8,29.88,SSW,196,0.0,4.0,93,0.00,,---,0.01,VWS V14.00,2013-10-07 21:36:00,
2013-10-07 17:41:00,73.8,71.7,29.87,South,185,0.0,4.0,93,0.00,,---,0.01,VWS V14.00,2013-10-07 21:41:00,
2013-10-07 17:46:00,73.9,71.8,29.88,South,185,0.0,4.0,93,0.00,,---,0.01,VWS V14.00,2013-10-07 21:46:00,
2013-10-07 17:51:00,73.9,71.8,29.87,South,185,0.0,4.0,93,0.00,,---,0.01,VWS V14.00,2013-10-07 21:51:00,
2013-10-07 17:56:00,73.9,72.1,29.87,South,185,0.0,4.0,94,0.00,,---,0.02,VWS V14.00,2013-10-07 21:56:00,
2013-10-07 18:01:00,73.9,72.1,29.87,South,185,0.0,0.0,94,0.00,,---,0.02,VWS V14.00,2013-10-07 22:01:00,
2013-10-07 18:06:00,73.9,72.1,29.87,South,185,0.0,0.0,94,0.00,,---,0.02,VWS V14.00,2013-10-07 22:06:00,
2013-10-07 18:11:00,74.0,72.2,29.86,South,185,0.0,0.0,94,0.00,,---,0.02,VWS V14.00,2013-10-07 22:11:00,
2013-10-07 18:16:00,74.0,72.2,29.86,South,185,0.0,0.0,94,0.00,,---,0.02,VWS V14.00,2013-10-07 22:16:00,
2013-10-07 18:21:00,73.9,72.1,29.87,South,185,0.0,0.0,94,0.00,,---,0.02,VWS V14.00,2013-10-07 22:21:00,
2013-10-07 18:26:00,73.5,71.7,29.87,South,185,0.0,2.0,94,0.00,,---,0.02,VWS V14.00,2013-10-07 22:26:00,
2013-10-07 18:31:00,73.3,71.5,29.88,South,185,0.0,0.0,94,0.00,,---,0.03,VWS V14.00,2013-10-07 22:31:00,
2013-10-07 18:36:00,73.2,71.7,29.88,South,185,0.0,0.0,95,0.00,,---,0.03,VWS V14.00,2013-10-07 22:36:00,
2013-10-07 18:41:00,73.1,71.6,29.87,South,185,0.0,0.0,95,0.00,,---,0.03,VWS V14.00,2013-10-07 22:41:00,
2013-10-07 18:46:00,73.1,71.6,29.88,South,185,0.0,0.0,95,0.05,,---,0.04,VWS V14.00,2013-10-07 22:46:00,
2013-10-07 18:51:00,73.0,71.5,29.88,South,185,0.0,0.0,95,0.05,,---,0.04,VWS V14.00,2013-10-07 22:51:00,
2013-10-07 18:56:00,72.8,71.3,29.88,South,185,0.0,0.0,95,0.16,,---,0.06,VWS V14.00,2013-10-07 22:56:00,
2013-10-07 19:01:00,72.9,71.4,29.87,South,185,0.0,0.0,95,0.15,,---,0.07,VWS V14.00,2013-10-07 23:01:00,
2013-10-07 19:06:00,72.9,71.7,29.87,South,185,0.0,0.0,96,0.16,,---,0.08,VWS V14.00,2013-10-07 23:06:00,
2013-10-07 19:11:00,73.1,71.9,29.87,SSE,160,0.0,2.0,96,0.07,,---,0.08,VWS V14.00,2013-10-07 23:11:00,
2013-10-07 19:16:00,73.1,71.9,29.87,SSE,157,3.0,5.0,96,0.05,,---,0.09,VWS V14.00,2013-10-07 23:16:00,
2013-10-07 19:21:00,73.1,71.9,29.87,South,169,4.0,5.0,96,0.05,,---,0.09,VWS V14.00,2013-10-07 23:21:00,
2013-10-07 19:26:00,73.1,71.9,29.87,South,183,2.0,7.0,96,0.05,,---,0.09,VWS V14.00,2013-10-07 23:26:00,
2013-10-07 19:31:00,73.0,71.8,29.86,SSE,162,4.0,5.0,96,0.00,,---,0.09,VWS V14.00,2013-10-07 23:31:00,
2013-10-07 19:36:00,72.9,71.7,29.86,SSE,156,0.0,6.0,96,0.00,,---,0.10,VWS V14.00,2013-10-07 23:36:00,
2013-10-07 19:41:00,72.9,71.7,29.86,SSE,156,0.0,6.0,96,0.00,,---,0.10,VWS V14.00,2013-10-07 23:41:00,
2013-10-07 19:46:00,72.9,71.7,29.86,SSE,156,0.0,6.0,96,0.08,,---,0.11,VWS V14.00,2013-10-07 23:46:00,
2013-10-07 19:51:00,72.8,71.6,29.86,SSE,156,0.0,6.0,96,0.15,,---,0.12,VWS V14.00,2013-10-07 23:51:00,
2013-10-07 19:56:00,72.8,71.6,29.87,SSE,156,0.0,6.0,96,0.10,,---,0.13,VWS V14.00,2013-10-07 23:56:00,
2013-10-07 20:01:00,72.9,71.7,29.86,SSE,156,0.0,0.0,96,0.07,,---,0.13,VWS V14.00,2013-10-08 00:01:00,
2013-10-07 20:06:00,72.9,71.7,29.87,SSE,156,0.0,0.0,96,0.07,,---,0.14,VWS V14.00,2013-10-08 00:06:00,
2013-10-07 20:11:00,72.8,71.6,29.87,SSE,152,0.0,0.0,96,0.09,,---,0.15,VWS V14.00,2013-10-08 00:11:00,
2013-10-07 20:15:00,72.8,71.6,29.87,SE,144,0.0,0.0,96,0.09,,---,0.16,VWS V14.00,2013-10-08 00:15:00,
2013-10-07 20:20:00,72.7,71.5,29.87,SE,144,0.0,0.0,96,0.09,,---,0.16,VWS V14.00,2013-10-08 00:20:00,
2013-10-07 20:25:00,72.9,71.7,29.87,East,95,0.0,0.0,96,0.09,,---,0.18,VWS V14.00,2013-10-08 00:25:00,
2013-10-07 20:30:00,73.1,72.2,29.88,ENE,68,0.0,0.0,97,0.12,,---,0.18,VWS V14.00,2013-10-08 00:30:00,
2013-10-07 20:35:00,73.2,72.3,29.88,NE,48,0.0,0.0,97,0.16,,---,0.20,VWS V14.00,2013-10-08 00:35:00,
2013-10-07 20:40:00,73.3,72.4,29.88,NE,44,2.0,3.0,97,0.11,,---,0.20,VWS V14.00,2013-10-08 00:40:00,
2013-10-07 20:45:00,73.5,72.6,29.88,North,354,3.0,4.0,97,0.06,,---,0.20,VWS V14.00,2013-10-08 00:45:00,
2013-10-07 20:50:00,73.0,71.8,29.88,NNW,330,5.0,6.0,96,0.05,,---,0.21,VWS V14.00,2013-10-08 00:50:00,
2013-10-07 20:55:00,72.7,71.5,29.88,North,10,6.0,8.0,96,0.05,,---,0.21,VWS V14.00,2013-10-08 00:55:00,
2013-10-07 21:00:00,72.7,71.8,29.88,NNE,14,5.0,8.0,97,0.04,,---,0.22,VWS V14.00,2013-10-08 01:00:00,
2013-10-07 21:05:00,72.7,71.8,29.88,NE,34,3.0,8.0,97,0.04,,---,0.22,VWS V14.00,2013-10-08 01:05:00,
2013-10-07 21:10:00,72.6,71.7,29.88,NE,50,5.0,8.0,97,0.04,,---,0.22,VWS V14.00,2013-10-08 01:10:00,
2013-10-07 21:15:00,72.6,71.7,29.88,ENE,67,0.0,8.0,97,0.04,,---,0.22,VWS V14.00,2013-10-08 01:15:00,
2013-10-07 21:20:00,72.7,71.8,29.89,NNE,17,1.0,8.0,97,0.00,,---,0.22,VWS V14.00,2013-10-08 01:20:00,
2013-10-07 21:25:00,72.5,71.6,29.89,NNW,330,2.0,8.0,97,0.00,,---,0.22,VWS V14.00,2013-10-08 01:25:00,
2013-10-07 21:30:00,72.4,71.5,29.89,NW,312,4.0,5.0,97,0.00,,---,0.22,VWS V14.00,2013-10-08 01:30:00,
2013-10-07 21:35:00,72.2,71.3,29.89,NNW,341,3.0,5.0,97,0.00,,---,0.22,VWS V14.00,2013-10-08 01:35:00,
2013-10-07 21:40:00,72.2,71.3,29.89,North,6,4.0,6.0,97,0.00,,---,0.22,VWS V14.00,2013-10-08 01:40:00,
2013-10-07 21:45:00,72.2,71.3,29.90,North,4,4.0,7.0,97,0.00,,---,0.22,VWS V14.00,2013-10-08 01:45:00,
2013-10-07 21:50:00,72.1,71.2,29.90,NNE,14,4.0,7.0,97,0.00,,---,0.22,VWS V14.00,2013-10-08 01:50:00,
2013-10-07 21:55:00,72.1,71.2,29.90,NNE,13,3.0,7.0,97,0.00,,---,0.22,VWS V14.00,2013-10-08 01:55:00,
2013-10-07 22:00:00,72.0,71.1,29.90,NNE,15,4.0,6.0,97,0.00,,---,0.22,VWS V14.00,2013-10-08 02:00:00,
2013-10-07 22:05:00,71.9,71.0,29.90,North,4,4.0,6.0,97,0.00,,---,0.22,VWS V14.00,2013-10-08 02:05:00,
2013-10-07 22:10:00,71.8,70.9,29.90,North,8,4.0,6.0,97,0.00,,---,0.22,VWS V14.00,2013-10-08 02:10:00,
2013-10-07 22:15:00,71.8,70.9,29.91,North,8,0.0,6.0,97,0.00,,---,0.22,VWS V14.00,2013-10-08 02:15:00,
2013-10-07 22:20:00,71.9,71.0,29.91,North,9,0.0,6.0,97,0.00,,---,0.22,VWS V14.00,2013-10-08 02:20:00,
2013-10-07 22:25:00,71.9,71.0,29.91,North,9,0.0,6.0,97,0.00,,---,0.22,VWS V14.00,2013-10-08 02:25:00,
2013-10-07 22:30:00,71.8,70.9,29.91,North,9,0.0,0.0,97,0.00,,---,0.22,VWS V14.00,2013-10-08 02:30:00,
2013-10-07 22:35:00,71.8,70.9,29.91,North,9,0.0,0.0,97,0.00,,---,0.22,VWS V14.00,2013-10-08 02:35:00,
2013-10-07 22:40:00,71.8,70.9,29.91,North,9,0.0,0.0,97,0.00,,---,0.22,VWS V14.00,2013-10-08 02:40:00,
2013-10-07 22:45:00,71.8,70.9,29.91,North,9,0.0,0.0,97,0.00,,---,0.23,VWS V14.00,2013-10-08 02:45:00,
2013-10-07 22:50:00,71.8,70.9,29.91,North,9,3.0,3.0,97,0.00,,---,0.23,VWS V14.00,2013-10-08 02:50:00,
2013-10-07 22:55:00,71.8,70.9,29.91,NE,43,0.0,5.0,97,0.00,,---,0.23,VWS V14.00,2013-10-08 02:55:00,
2013-10-07 23:00:00,71.8,70.9,29.91,NE,44,0.0,4.0,97,0.00,,---,0.23,VWS V14.00,2013-10-08 03:00:00,
2013-10-07 23:05:00,71.8,70.9,29.91,NE,44,0.0,4.0,97,0.00,,---,0.23,VWS V14.00,2013-10-08 03:05:00,
2013-10-07 23:10:00,71.8,70.9,29.91,NE,44,0.0,4.0,97,0.00,,---,0.23,VWS V14.00,2013-10-08 03:10:00,
2013-10-07 23:15:00,71.8,70.9,29.91,NE,43,2.0,4.0,97,0.00,,---,0.23,VWS V14.00,2013-10-08 03:15:00,
2013-10-07 23:20:00,71.9,71.0,29.91,NNE,21,0.0,7.0,97,0.00,,---,0.23,VWS V14.00,2013-10-08 03:20:00,
2013-10-07 23:25:00,71.9,71.0,29.91,ENE,60,0.0,7.0,97,0.00,,---,0.23,VWS V14.00,2013-10-08 03:25:00,
2013-10-07 23:30:00,71.8,70.9,29.90,NE,44,0.0,3.0,97,0.00,,---,0.23,VWS V14.00,2013-10-08 03:30:00,
2013-10-07 23:35:00,71.8,70.9,29.90,NE,50,0.0,3.0,97,0.00,,---,0.23,VWS V14.00,2013-10-08 03:35:00,
2013-10-07 23:40:00,71.8,70.9,29.90,NE,42,0.0,4.0,97,0.00,,---,0.23,VWS V14.00,2013-10-08 03:40:00,
2013-10-07 23:45:00,71.7,70.8,29.90,NE,37,1.0,4.0,97,0.00,,---,0.23,VWS V14.00,2013-10-08 03:45:00,
2013-10-07 23:50:00,71.6,70.7,29.90,NE,38,0.0,4.0,97,0.00,,---,0.23,VWS V14.00,2013-10-08 03:50:00,
2013-10-07 23:55:00,71.6,70.7,29.90,ENE,62,0.0,4.0,97,0.00,,---,0.23,VWS V14.00,2013-10-08 03:55:00,